User: anonymous
Location: Fort Frances
(48.6170°N, 93.4170°W)
Time: 03:01:40
(UTC-05:00)
Language:

Iridium 53 - Orbit

View from above orbital plane
View from above orbital plane
View from above satellite
View from above satellite

Ground track
Ground track

The orbit data is extracted from the following two-line orbital elements,

1 25173U 98010E   14240.49982831  .00000077  00000-0  20382-4 0  9163
2 25173 086.3935 058.2431 0002031 107.2060 278.3914 14.34217697865040
Epoch (UTC): 28 August 2014 11:59:45
Eccentricity: 0.0002031
inclination: 86.3935°
perigee height: 776 km
apogee height: 779 km
right ascension of ascending node: 58.2431°
argument of perigee: 107.2060°
revolutions per day: 14.34217697
mean anomaly at epoch: 278.3914°
orbit number at epoch: 86504

The dashed part of the orbit path shows where the satellite is in the earth's shadow,  

DLR